This demonstration page uses our WeatherBlox Daily Observations layout. Learn more.

Left ArrowRight Arrow

38.88101, -77.10428

Hourly Observations for November 27, 2022

Temp ( °F °C ) Dew Point ( °F °C ) Humidity (%) Winds ( mph kmh ) Pressure ( in mb ) Visibility ( mi km ) Precip ( " mm )
12:52 am 00:52 Cloudy 48 8.9 37 2.8 66 66 Calm 29.99 1016 10 16 0.00 0.00
1:52 am 01:52 Cloudy 48 8.9 37 2.8 66 66 SSW 5 7 29.98 1015 10 16 0.00 0.00
2:52 am 02:52 Cloudy 49 9.4 37 2.8 63 63 Calm 29.96 1015 10 16 0.00 0.00
3:52 am 03:52 Cloudy 50 10 37 2.8 61 61 SSW 5 7 29.93 1013 10 16 0.00 0.00
4:52 am 04:52 Cloudy 49 9.4 38 3.3 66 66 S 8 13 29.91 1013 10 16 0.00 0.00
5:52 am 05:52 Cloudy 50 10 38 3.3 63 63 SSW 6 9 29.90 1013 10 16 0.00 0.00
6:52 am 06:52 Cloudy 50 10 39 3.9 66 66 S 10 17 29.89 1012 10 16 0.00 0.00
7:52 am 07:52 Cloudy 50 10 39 3.9 66 66 S 10 17 29.86 1011 10 16 0.00 0.00
8:52 am 08:52 Cloudy 51 10.6 40 4.4 65 65 S 14 22 29.84 1010 10 16 0.01 0.13
9:19 am 09:19 Cloudy 51 10.6 42 5.6 71 71 S 13 20 29.83 1010 10 16 0.01 0.13
9:52 am 09:52 Cloudy 52 11.1 42 5.6 69 69 S 12 19 29.83 1010 10 16 0.01 0.13
10:52 am 10:52 Cloudy with Rain 49 9.4 45 7.2 86 86 S 10 17 29.78 1009 3 5 0.02 0.51
11:15 am 11:15 Cloudy with Light Rain 48 8.9 46 7.8 93 93 S 8 13 29.76 1008 7 11 0.01 0.25
11:52 am 11:52 Cloudy with Heavy Rain 48 8.9 46 7.8 93 93 SSW 7 11 29.72 1006 2 3 0.07 1.78
12:09 pm 12:09 Cloudy with Rain 49 9.4 47 8.3 93 93 S 6 9 29.70 1006 3 5 0.04 1.02
12:40 pm 12:40 Cloudy with Light Rain 48 8.9 47 8.3 96 96 SSE 7 11 29.66 1004 4 6 0.07 1.78
12:52 pm 12:52 Cloudy with Light Rain 48 8.9 47 8.3 96 96 SSE 8 13 29.62 1003 5 8 0.08 2.03
1:05 pm 13:05 Cloudy with Rain 48 8.9 47 8.3 96 96 SSE 8 13 29.60 1002 4 6 0.01 0.25
1:10 pm 13:10 Cloudy with Rain 49 9.4 48 8.9 97 97 SSE 8 13 29.58 1002 3 4 0.02 0.51
1:18 pm 13:18 Cloudy with Rain 50 10 48 8.9 93 93 SSE 8 13 29.56 1001 3 5 0.05 1.27
1:52 pm 13:52 Cloudy 51 10.6 49 9.4 92 92 W 7 11 29.57 1002 10 16 0.05 1.27
2:52 pm 14:52 Cloudy with Light Rain 50 10 49 9.4 96 96 ESE 3 6 29.52 1000 2 3 0.01 0.25
2:57 pm 14:57 Cloudy with Patchy Fog 50 10 49 9.4 96 96 Calm 29.52 1000 2 3 0.01 0.25
3:04 pm 15:04 Cloudy with Patchy Fog 50 10 49 9.4 96 96 Calm 29.52 1000 1 2 0.01 0.25
3:19 pm 15:19 Cloudy with Patchy Fog 50 10 49 9.4 96 96 ESE 3 6 29.50 999 2 3 0.01 0.25
3:32 pm 15:32 Cloudy with Patchy Fog 51 10.6 50 10 96 96 Calm 29.49 999 2 2 0.01 0.25
3:44 pm 15:44 Cloudy with Mist and Fog 51 10.6 51 10.6 100 100 Calm 29.49 999 4 6 0.01 0.25
3:52 pm 15:52 Cloudy with Light Rain 52 11.1 51 10.6 97 97 SE 3 6 29.48 998 4 6 0.01 0.25
4:07 pm 16:07 Cloudy with Light Rain 52 11.1 51 10.6 97 97 VRB 3 6 29.48 998 3 5 0.01 0.13
4:36 pm 16:36 Cloudy with Patchy Fog 50 10 49 9.4 96 96 Calm 29.46 998 2 2 0.01 0.13
4:52 pm 16:52 Cloudy with Patchy Fog 51 10.6 50 10 96 96 Calm 29.46 998 2 3 0.01 0.13
5:03 pm 17:03 Cloudy with Patchy Fog 51 10.6 50 10 96 96 S 3 6 29.46 998 4 6 0.01 0.13
5:21 pm 17:21 Mostly Cloudy 54 12.2 52 11.1 93 93 VRB 3 6 29.46 998 7 11 0.01 0.13
5:35 pm 17:35 Partly Cloudy 58 14.4 55 12.8 90 90 SSW 15 24 29.46 998 10 16 0.01 0.13
5:40 pm 17:40 Mostly Cloudy 58 14.4 56 13.3 93 93 SW 16 26 29.46 998 10 16 0.01 0.13
5:52 pm 17:52 Mostly Cloudy 58 14.4 56 13.3 93 93 SSW 18 30 29.46 998 10 16 0.01 0.13
6:13 pm 18:13 Partly Cloudy 58 14.4 55 12.8 90 90 SSW 16 26 29.45 997 10 16 0.00 0.00
6:52 pm 18:52 Mostly Cloudy 58 14.4 55 12.8 90 90 W 8 13 29.49 999 10 16 0.00 0.00
7:52 pm 19:52 Mostly Cloudy 58 14.4 54 12.2 87 87 SW 6 9 29.51 999 10 16 0.00 0.00
8:16 pm 20:16 Mostly Cloudy 57 13.9 53 11.7 87 87 SSW 6 9 29.52 1000 10 16 0.00 0.00
8:52 pm 20:52 Partly Cloudy 56 13.3 52 11.1 87 87 SSW 7 11 29.53 1000 10 16 0.00 0.00
9:52 pm 21:52 Mostly Cloudy 55 12.8 52 11.1 89 89 SSW 5 7 29.53 1000 10 16 0.00 0.00
10:52 pm 22:52 Partly Cloudy 53 11.7 51 10.6 93 93 Calm 29.54 1000 10 16 0.00 0.00
11:52 pm 23:52 Partly Cloudy with Fog 50 10 50 10 100 100 SE 3 6 29.56 1001 10 16 0.00 0.00

Powered by AerisWeather